This demonstration page uses our WeatherBlox Daily Observations layout. Learn more.

Left ArrowRight Arrow

Hourly Observations for April 6, 2017

Temp ( °F °C ) Dew Point ( °F °C ) Humidity (%) Winds ( mph kmh ) Pressure ( in mb ) Visibility ( mi km ) Precip ( " mm )
12:59 am 00:59 Cloudy 67 19.4 60 15.6 79 79 S 12 19 29.74 1007 10 16 0.00 0.00
1:59 am 01:59 Cloudy 68 20 59 15 73 73 S 12 19 29.72 1007 10 16 0.00 0.00
2:59 am 02:59 Cloudy 67 19.4 59 15 76 76 S 12 19 29.71 1006 10 16 0.00 0.00
3:59 am 03:59 Cloudy 67 19.4 59 15 76 76 S 6 9 29.71 1006 10 16 0.00 0.00
4:59 am 04:59 Cloudy 67 19.4 60 15.6 79 79 SSW 6 9 29.70 1006 10 16 0.00 0.00
5:59 am 05:59 Cloudy with Light Rain 66 18.9 60 15.6 81 81 S 5 7 29.69 1006 9 14 0.00 0.03
6:59 am 06:59 Cloudy 65 18.3 61 16.1 87 87 S 5 7 29.67 1005 9 14 0.00 0.03
7:59 am 07:59 Cloudy 66 18.9 60 15.6 81 81 SSE 12 19 29.64 1004 10 16 0.00 0.00
8:59 am 08:59 Cloudy 67 19.4 58 14.4 73 73 SW 15 24 29.54 1000 10 16 0.00 0.00
9:59 am 09:59 Mostly Cloudy 69 20.6 57 13.9 66 66 S 16 26 29.50 999 10 16 0.00 0.00
10:59 am 10:59 Mostly Cloudy 71 21.7 58 14.4 63 63 S 16 26 29.45 997 10 16 0.00 0.00
11:59 am 11:59 Cloudy with Light Rain 69 20.6 60 15.6 73 73 SSE 20 31 29.39 995 9 14 0.01 0.25
12:22 pm 12:22 Cloudy with Thunderstorms 68 20 61 16.1 78 78 SSE 17 28 29.35 994 7 11 0.00 0.03
12:51 pm 12:51 Cloudy with Strong Thunderstorms 65 18.3 62 16.7 90 90 W 16 26 29.38 995 1 1 0.22 5.59
12:59 pm 12:59 Mostly Cloudy with Thunderstorms 66 18.9 62 16.7 87 87 SSW 18 30 29.34 994 5 8 0.29 7.37
1:09 pm 13:09 Mostly Cloudy with Thunderstorms 66 18.9 62 16.7 87 87 SSW 18 30 29.32 993 5 8 0.00 0.03
1:33 pm 13:33 Partly Cloudy 68 20 60 15.6 76 76 SSW 16 26 29.35 994 10 16 0.00 0.03
1:59 pm 13:59 Partly Cloudy 73 22.8 52 11.1 48 48 SW 24 39 29.31 993 10 16 0.00 0.03
2:59 pm 14:59 Partly Cloudy 76 24.4 34 1.1 22 22 SW 29 46 29.31 993 10 16 0.00 0.00
3:59 pm 15:59 Partly Cloudy 71 21.7 42 5.6 35 35 WSW 23 37 29.35 994 10 16 0.00 0.00
4:59 pm 16:59 Partly Cloudy 67 19.4 41 5 39 39 WSW 29 46 29.39 995 10 16 0.00 0.00
5:59 pm 17:59 Partly Cloudy 64 17.8 41 5 43 43 WSW 20 31 29.43 997 10 16 0.00 0.00
6:59 pm 18:59 Mostly Cloudy 62 16.7 41 5 46 46 SW 17 28 29.45 997 10 16 0.00 0.00
7:59 pm 19:59 Mostly Cloudy 63 17.2 41 5 45 45 SW 14 22 29.46 998 10 16 0.00 0.00
8:59 pm 20:59 Cloudy 63 17.2 40 4.4 43 43 WSW 22 35 29.50 999 10 16 0.00 0.00
9:59 pm 21:59 Mostly Cloudy 61 16.1 37 2.8 41 41 WSW 16 26 29.53 1000 10 16 0.00 0.00
10:59 pm 22:59 Partly Cloudy 60 15.6 36 2.2 41 41 WSW 17 28 29.54 1000 10 16 0.00 0.00
11:59 pm 23:59 Mostly Clear 56 13.3 33 0.6 42 42 W 22 35 29.55 1001 10 16 0.00 0.00

Powered by AerisWeather